Time,TemperatureF,DewpointF,PressureIn,WindDirection,WindDirectionDegrees,WindSpeedMPH,WindSpeedGustMPH,Humidity,HourlyPrecipIn,Conditions,Clouds,dailyrainin,SoftwareType,DateUTC
2013-08-31 00:01:00,61.7,35.9,29.96,SSW,203,0.0,0.0,38,0.00,,,0.00,VWS V14.01,2013-08-31 07:01:00,
2013-08-31 00:06:00,61.7,36.5,29.96,SSW,203,0.0,0.0,39,0.00,,,0.00,VWS V14.01,2013-08-31 07:06:00,
2013-08-31 00:11:00,61.7,36.5,29.96,South,173,2.7,3.1,39,0.00,,,0.00,VWS V14.01,2013-08-31 07:11:00,
2013-08-31 00:16:00,61.9,37.3,29.96,SSW,202,0.0,3.6,40,0.00,,,0.00,VWS V14.01,2013-08-31 07:16:00,
2013-08-31 00:21:00,62.1,38.1,29.96,SSW,193,0.0,0.0,41,0.00,,,0.00,VWS V14.01,2013-08-31 07:21:00,
2013-08-31 00:26:00,62.2,38.3,29.96,SSW,193,0.0,0.0,41,0.00,,,0.00,VWS V14.01,2013-08-31 07:26:00,
2013-08-31 00:31:00,61.9,38.0,29.96,SSW,193,0.0,0.0,41,0.00,,,0.00,VWS V14.01,2013-08-31 07:31:00,
2013-08-31 00:36:00,61.9,38.0,29.96,SSW,193,0.0,0.0,41,0.00,,,0.00,VWS V14.01,2013-08-31 07:36:00,
2013-08-31 00:41:00,61.7,38.4,29.96,SSW,193,0.0,0.0,42,0.00,,,0.00,VWS V14.01,2013-08-31 07:41:00,
2013-08-31 00:46:00,61.5,38.2,29.96,SSW,193,0.0,0.0,42,0.00,,,0.00,VWS V14.01,2013-08-31 07:46:00,
2013-08-31 00:51:00,61.5,38.2,29.96,SSW,193,0.0,0.0,42,0.00,,,0.00,VWS V14.01,2013-08-31 07:51:00,
2013-08-31 00:56:00,61.5,38.8,29.96,SSW,193,0.0,0.0,43,0.00,,,0.00,VWS V14.01,2013-08-31 07:56:00,
2013-08-31 01:01:00,61.3,38.7,29.96,SSW,193,0.0,0.0,43,0.00,,,0.00,VWS V14.01,2013-08-31 08:01:00,
2013-08-31 01:06:00,61.3,38.7,29.96,SSW,193,0.0,0.0,43,0.00,,,0.00,VWS V14.01,2013-08-31 08:06:00,
2013-08-31 01:11:00,61.3,39.3,29.96,SSW,193,0.0,0.0,44,0.00,,,0.00,VWS V14.01,2013-08-31 08:11:00,
2013-08-31 01:16:00,61.3,39.3,29.96,SSW,193,0.0,0.0,44,0.00,,,0.00,VWS V14.01,2013-08-31 08:16:00,
2013-08-31 01:21:00,61.3,39.3,29.96,SSW,193,0.0,0.0,44,0.00,,,0.00,VWS V14.01,2013-08-31 08:21:00,
2013-08-31 01:26:00,61.2,39.1,29.96,SSW,193,0.0,0.0,44,0.00,,,0.00,VWS V14.01,2013-08-31 08:26:00,
2013-08-31 01:31:00,61.0,38.9,29.96,SSW,193,0.0,0.0,44,0.00,,,0.00,VWS V14.01,2013-08-31 08:31:00,
2013-08-31 01:36:00,61.0,38.9,29.96,SSW,193,0.0,0.0,44,0.00,,,0.00,VWS V14.01,2013-08-31 08:36:00,
2013-08-31 01:41:00,60.8,39.3,29.96,SSW,193,0.0,0.0,45,0.00,,,0.00,VWS V14.01,2013-08-31 08:41:00,
2013-08-31 01:46:00,60.6,39.2,29.96,SSW,193,0.0,0.0,45,0.00,,,0.00,VWS V14.01,2013-08-31 08:46:00,
2013-08-31 01:51:00,60.6,39.2,29.93,SSW,193,0.0,0.0,45,0.00,,,0.00,VWS V14.01,2013-08-31 08:51:00,
2013-08-31 01:56:00,60.6,39.2,29.93,SSW,193,0.0,2.7,45,0.00,,,0.00,VWS V14.01,2013-08-31 08:56:00,
2013-08-31 02:01:00,60.6,39.2,29.93,SSW,193,0.0,0.0,45,0.00,,,0.00,VWS V14.01,2013-08-31 09:01:00,
2013-08-31 02:06:00,60.4,39.6,29.93,SSW,193,0.0,0.0,46,0.00,,,0.00,VWS V14.01,2013-08-31 09:06:00,
2013-08-31 02:11:00,60.4,39.6,29.93,SSW,193,0.0,0.0,46,0.00,,,0.00,VWS V14.01,2013-08-31 09:11:00,
2013-08-31 02:16:00,60.3,39.4,29.93,SSW,193,0.0,0.0,46,0.00,,,0.00,VWS V14.01,2013-08-31 09:16:00,
2013-08-31 02:21:00,60.1,39.2,29.93,SSW,193,0.0,0.0,46,0.00,,,0.00,VWS V14.01,2013-08-31 09:21:00,
2013-08-31 02:26:00,59.7,38.9,29.93,SSW,193,0.0,0.0,46,0.00,,,0.00,VWS V14.01,2013-08-31 09:26:00,
2013-08-31 02:31:00,59.5,38.8,29.93,SSW,193,0.0,0.0,46,0.00,,,0.00,VWS V14.01,2013-08-31 09:31:00,
2013-08-31 02:36:00,59.4,38.6,29.93,SSW,193,0.0,0.0,46,0.00,,,0.00,VWS V14.01,2013-08-31 09:36:00,
2013-08-31 02:42:00,59.2,39.0,29.93,SSW,193,0.0,0.0,47,0.00,,,0.00,VWS V14.01,2013-08-31 09:42:00,
2013-08-31 02:47:00,59.0,38.8,29.93,SSW,193,0.0,0.0,47,0.00,,,0.00,VWS V14.01,2013-08-31 09:47:00,
2013-08-31 02:52:00,59.0,38.8,29.93,SSW,193,0.0,0.0,47,0.00,,,0.00,VWS V14.01,2013-08-31 09:52:00,
2013-08-31 02:57:00,58.8,39.2,29.93,SSW,193,0.0,0.0,48,0.00,,,0.00,VWS V14.01,2013-08-31 09:57:00,
2013-08-31 03:02:00,58.8,39.2,29.93,SSW,193,0.0,0.0,48,0.00,,,0.00,VWS V14.01,2013-08-31 10:02:00,
2013-08-31 03:07:00,58.6,39.0,29.93,SSW,193,0.0,0.0,48,0.00,,,0.00,VWS V14.01,2013-08-31 10:07:00,
2013-08-31 03:12:00,58.5,38.9,29.93,SSW,193,0.0,0.0,48,0.00,,,0.00,VWS V14.01,2013-08-31 10:12:00,
2013-08-31 03:17:00,58.6,39.0,29.93,SSW,193,0.0,0.0,48,0.00,,,0.00,VWS V14.01,2013-08-31 10:17:00,
2013-08-31 03:22:00,58.6,39.5,29.93,SSW,193,0.0,0.0,49,0.00,,,0.00,VWS V14.01,2013-08-31 10:22:00,
2013-08-31 03:27:00,58.5,39.4,29.93,SSW,193,0.0,0.0,49,0.00,,,0.00,VWS V14.01,2013-08-31 10:27:00,
2013-08-31 03:32:00,58.5,39.4,29.93,SSW,193,0.0,0.0,49,0.00,,,0.00,VWS V14.01,2013-08-31 10:32:00,
2013-08-31 03:37:00,58.3,39.2,29.93,SSW,193,0.0,0.0,49,0.00,,,0.00,VWS V14.01,2013-08-31 10:37:00,
2013-08-31 03:42:00,58.3,39.2,29.93,SSW,193,0.0,0.0,49,0.00,,,0.00,VWS V14.01,2013-08-31 10:42:00,
2013-08-31 03:47:00,58.1,39.6,29.93,SSW,193,0.0,0.0,50,0.00,,,0.00,VWS V14.01,2013-08-31 10:47:00,
2013-08-31 03:52:00,58.1,39.6,29.93,SSW,193,0.0,0.0,50,0.00,,,0.00,VWS V14.01,2013-08-31 10:52:00,
2013-08-31 03:57:00,58.3,39.7,29.93,SSW,193,0.0,0.0,50,0.00,,,0.00,VWS V14.01,2013-08-31 10:57:00,
2013-08-31 04:02:00,58.5,39.9,29.93,SSW,193,0.0,0.0,50,0.00,,,0.00,VWS V14.01,2013-08-31 11:02:00,
2013-08-31 04:07:00,58.5,39.9,29.93,South,186,0.0,0.0,50,0.00,,,0.00,VWS V14.01,2013-08-31 11:07:00,
2013-08-31 04:12:00,58.5,40.4,29.93,South,186,0.0,0.0,51,0.00,,,0.00,VWS V14.01,2013-08-31 11:12:00,
2013-08-31 04:17:00,58.5,40.4,29.93,South,186,0.0,0.0,51,0.00,,,0.00,VWS V14.01,2013-08-31 11:17:00,
2013-08-31 04:22:00,58.5,40.4,29.93,South,186,2.2,2.2,51,0.00,,,0.00,VWS V14.01,2013-08-31 11:22:00,
2013-08-31 04:27:00,58.3,40.2,29.93,SSW,213,2.2,2.2,51,0.00,,,0.00,VWS V14.01,2013-08-31 11:27:00,
2013-08-31 04:32:00,58.5,40.9,29.93,SSW,213,0.0,0.0,52,0.00,,,0.00,VWS V14.01,2013-08-31 11:32:00,
2013-08-31 04:37:00,58.5,40.9,29.93,SW,214,0.0,0.0,52,0.00,,,0.00,VWS V14.01,2013-08-31 11:37:00,
2013-08-31 04:42:00,58.6,41.6,29.93,SW,214,0.0,0.0,53,0.00,,,0.00,VWS V14.01,2013-08-31 11:42:00,
2013-08-31 04:47:00,58.8,41.7,29.93,SSW,213,0.0,0.0,53,0.00,,,0.00,VWS V14.01,2013-08-31 11:47:00,
2013-08-31 04:52:00,58.8,41.7,29.93,SW,214,0.0,0.0,53,0.00,,,0.00,VWS V14.01,2013-08-31 11:52:00,
2013-08-31 04:57:00,59.0,41.9,29.93,SSW,213,2.2,3.1,53,0.00,,,0.00,VWS V14.01,2013-08-31 11:57:00,
2013-08-31 05:02:00,59.0,41.9,29.93,SW,214,4.0,4.0,53,0.00,,,0.00,VWS V14.01,2013-08-31 12:02:00,
2013-08-31 05:07:00,59.2,42.6,29.93,SW,214,0.0,0.0,54,0.00,,,0.00,VWS V14.01,2013-08-31 12:07:00,
2013-08-31 05:12:00,59.2,42.6,29.93,SW,214,3.1,3.1,54,0.00,,,0.00,VWS V14.01,2013-08-31 12:12:00,
2013-08-31 05:17:00,59.2,43.0,29.93,SW,236,3.1,4.0,55,0.00,,,0.00,VWS V14.01,2013-08-31 12:17:00,
2013-08-31 05:22:00,59.0,42.9,29.93,SW,235,2.7,2.7,55,0.00,,,0.00,VWS V14.01,2013-08-31 12:22:00,
2013-08-31 05:27:00,59.0,43.3,29.93,SW,223,2.7,3.6,56,0.00,,,0.00,VWS V14.01,2013-08-31 12:27:00,
2013-08-31 05:32:00,59.0,43.3,29.93,SW,222,0.0,2.7,56,0.00,,,0.00,VWS V14.01,2013-08-31 12:32:00,
2013-08-31 05:37:00,59.0,43.3,29.93,SW,222,2.7,2.7,56,0.00,,,0.00,VWS V14.01,2013-08-31 12:37:00,
2013-08-31 05:42:00,58.8,43.6,29.93,SW,222,0.0,2.7,57,0.00,,,0.00,VWS V14.01,2013-08-31 12:42:00,
2013-08-31 05:47:00,58.8,43.6,29.93,SW,222,0.0,0.0,57,0.00,,,0.00,VWS V14.01,2013-08-31 12:47:00,
2013-08-31 05:52:00,58.8,44.1,29.93,SW,222,0.0,0.0,58,0.00,,,0.00,VWS V14.01,2013-08-31 12:52:00,
2013-08-31 05:57:00,58.6,43.9,29.93,SW,222,2.2,2.7,58,0.00,,,0.00,VWS V14.01,2013-08-31 12:57:00,
2013-08-31 06:02:00,58.6,43.9,29.93,SW,222,0.0,0.0,58,0.00,,,0.00,VWS V14.01,2013-08-31 13:02:00,
2013-08-31 06:07:00,58.5,44.2,29.93,SW,222,2.7,2.7,59,0.00,,,0.00,VWS V14.01,2013-08-31 13:07:00,
2013-08-31 06:12:00,58.5,44.2,29.93,SW,222,0.0,2.2,59,0.00,,,0.00,VWS V14.01,2013-08-31 13:12:00,
2013-08-31 06:17:00,58.5,44.2,29.93,SW,222,0.0,2.7,59,0.00,,,0.00,VWS V14.01,2013-08-31 13:17:00,
2013-08-31 06:22:00,58.3,44.0,29.93,SW,222,3.1,3.6,59,0.00,,,0.00,VWS V14.01,2013-08-31 13:22:00,
2013-08-31 06:27:00,58.3,44.5,29.93,SW,222,0.0,0.0,60,0.00,,,0.00,VWS V14.01,2013-08-31 13:27:00,
2013-08-31 06:32:00,58.1,44.3,29.93,SW,222,2.7,2.7,60,0.00,,,0.00,VWS V14.01,2013-08-31 13:32:00,
2013-08-31 06:37:00,58.3,44.9,29.96,SW,222,2.7,2.7,61,0.00,,,0.00,VWS V14.01,2013-08-31 13:37:00,
2013-08-31 06:42:00,58.3,44.9,29.96,SW,222,0.0,2.7,61,0.00,,,0.00,VWS V14.01,2013-08-31 13:42:00,
2013-08-31 06:47:00,58.3,45.3,29.96,South,179,2.7,2.7,62,0.00,,,0.00,VWS V14.01,2013-08-31 13:47:00,
2013-08-31 06:52:00,58.1,45.2,29.96,South,179,0.0,2.2,62,0.00,,,0.00,VWS V14.01,2013-08-31 13:52:00,
2013-08-31 06:57:00,58.3,45.3,29.96,SSW,205,0.0,2.7,62,0.00,,,0.00,VWS V14.01,2013-08-31 13:57:00,
2013-08-31 07:02:00,58.3,45.8,29.96,South,172,0.0,0.0,63,0.00,,,0.00,VWS V14.01,2013-08-31 14:02:00,
2013-08-31 07:07:00,58.5,46.3,29.96,SSW,211,0.0,0.0,64,0.00,,,0.00,VWS V14.01,2013-08-31 14:07:00,
2013-08-31 07:12:00,58.6,46.5,29.96,SSW,199,2.2,2.2,64,0.00,,,0.00,VWS V14.01,2013-08-31 14:12:00,
2013-08-31 07:17:00,58.6,46.9,29.96,SSE,149,0.0,2.2,65,0.00,,,0.00,VWS V14.01,2013-08-31 14:17:00,
2013-08-31 07:22:00,58.8,47.1,29.96,WSW,244,3.1,4.0,65,0.00,,,0.00,VWS V14.01,2013-08-31 14:22:00,
2013-08-31 07:27:00,58.8,47.1,29.96,SSE,167,3.1,3.1,65,0.00,,,0.00,VWS V14.01,2013-08-31 14:27:00,
2013-08-31 07:32:00,58.6,46.9,29.96,SSE,160,0.0,4.9,65,0.00,,,0.00,VWS V14.01,2013-08-31 14:32:00,
2013-08-31 07:37:00,58.6,47.3,29.96,SSW,205,0.0,2.7,66,0.00,,,0.00,VWS V14.01,2013-08-31 14:37:00,
2013-08-31 07:42:00,58.8,47.5,29.96,South,182,3.6,3.6,66,0.00,,,0.00,VWS V14.01,2013-08-31 14:42:00,
2013-08-31 07:47:00,58.8,47.9,29.96,SSE,151,2.7,3.6,67,0.00,,,0.00,VWS V14.01,2013-08-31 14:47:00,
2013-08-31 07:52:00,59.0,48.1,29.96,SSE,149,2.2,2.2,67,0.00,,,0.00,VWS V14.01,2013-08-31 14:52:00,
2013-08-31 07:57:00,59.0,48.1,29.96,South,172,3.6,3.6,67,0.00,,,0.00,VWS V14.01,2013-08-31 14:57:00,
2013-08-31 08:02:00,59.2,48.2,29.96,South,181,0.0,2.2,67,0.00,,,0.00,VWS V14.01,2013-08-31 15:02:00,
2013-08-31 08:07:00,59.2,48.6,29.96,SSE,159,2.2,4.9,68,0.00,,,0.00,VWS V14.01,2013-08-31 15:07:00,
2013-08-31 08:12:00,59.4,48.8,29.96,SE,133,0.0,3.6,68,0.00,,,0.00,VWS V14.01,2013-08-31 15:12:00,
2013-08-31 08:17:00,59.2,48.6,29.96,SSW,205,4.0,4.0,68,0.00,,,0.00,VWS V14.01,2013-08-31 15:17:00,
2013-08-31 08:22:00,59.2,48.6,29.96,South,169,0.0,3.1,68,0.00,,,0.00,VWS V14.01,2013-08-31 15:22:00,
2013-08-31 08:27:00,59.4,49.2,29.96,SSW,198,4.0,4.0,69,0.00,,,0.00,VWS V14.01,2013-08-31 15:27:00,
2013-08-31 08:32:00,59.2,49.0,29.96,SSW,194,3.1,3.6,69,0.00,,,0.00,VWS V14.01,2013-08-31 15:32:00,
2013-08-31 08:37:00,59.4,49.2,29.99,SSW,207,2.2,4.0,69,0.00,,,0.00,VWS V14.01,2013-08-31 15:37:00,
2013-08-31 08:42:00,59.7,49.9,29.99,SW,214,0.0,3.1,70,0.00,,,0.00,VWS V14.01,2013-08-31 15:42:00,
2013-08-31 08:48:00,60.1,50.3,29.99,SSW,209,0.0,3.1,70,0.00,,,0.00,VWS V14.01,2013-08-31 15:48:00,
2013-08-31 08:53:00,60.4,51.0,29.99,South,188,3.1,4.0,71,0.00,,,0.00,VWS V14.01,2013-08-31 15:53:00,
2013-08-31 08:58:00,61.0,51.5,29.99,SSW,194,2.7,3.6,71,0.00,,,0.00,VWS V14.01,2013-08-31 15:58:00,
2013-08-31 09:03:00,61.9,52.4,29.99,SSW,207,3.1,4.9,71,0.00,,,0.00,VWS V14.01,2013-08-31 16:03:00,
2013-08-31 09:08:00,62.6,53.1,29.99,SSW,205,3.6,5.4,71,0.00,,,0.00,VWS V14.01,2013-08-31 16:08:00,
2013-08-31 09:13:00,63.0,53.0,29.99,SSW,196,4.0,4.0,70,0.00,,,0.00,VWS V14.01,2013-08-31 16:13:00,
2013-08-31 09:18:00,63.5,52.0,29.99,SW,233,4.9,8.1,66,0.00,,,0.00,VWS V14.01,2013-08-31 16:18:00,
2013-08-31 09:23:00,63.5,48.0,29.99,South,189,0.0,3.6,57,0.00,,,0.00,VWS V14.01,2013-08-31 16:23:00,
2013-08-31 09:28:00,63.9,45.9,29.99,SSW,212,4.0,5.8,52,0.00,,,0.00,VWS V14.01,2013-08-31 16:28:00,
2013-08-31 09:33:00,63.9,43.3,29.99,SSE,155,3.6,4.9,47,0.00,,,0.00,VWS V14.01,2013-08-31 16:33:00,
2013-08-31 09:38:00,63.9,42.7,29.99,South,184,5.8,5.8,46,0.00,,,0.00,VWS V14.01,2013-08-31 16:38:00,
2013-08-31 09:43:00,64.2,41.9,29.99,SSE,159,2.7,6.3,44,0.00,,,0.00,VWS V14.01,2013-08-31 16:43:00,
2013-08-31 09:48:00,64.4,40.8,29.99,ESE,118,4.9,4.9,42,0.00,,,0.00,VWS V14.01,2013-08-31 16:48:00,
2013-08-31 09:53:00,64.2,37.4,29.99,SSW,193,3.6,6.3,37,0.00,,,0.00,VWS V14.01,2013-08-31 16:53:00,
2013-08-31 09:58:00,64.4,37.6,29.99,SSW,212,4.0,4.0,37,0.00,,,0.00,VWS V14.01,2013-08-31 16:58:00,
2013-08-31 10:03:00,64.4,36.9,29.99,SW,226,4.9,4.9,36,0.00,,,0.00,VWS V14.01,2013-08-31 17:03:00,
2013-08-31 10:08:00,64.6,36.3,29.99,SSW,201,3.1,3.6,35,0.00,,,0.00,VWS V14.01,2013-08-31 17:08:00,
2013-08-31 10:13:00,64.9,35.9,29.99,South,190,5.8,5.8,34,0.00,,,0.00,VWS V14.01,2013-08-31 17:13:00,
2013-08-31 10:18:00,65.3,35.5,29.99,SSW,198,3.6,3.6,33,0.00,,,0.00,VWS V14.01,2013-08-31 17:18:00,
2013-08-31 10:23:00,65.8,36.0,29.99,South,184,0.0,0.0,33,0.00,,,0.00,VWS V14.01,2013-08-31 17:23:00,
2013-08-31 10:28:00,66.2,33.9,29.99,SSW,203,3.1,5.8,30,0.00,,,0.00,VWS V14.01,2013-08-31 17:28:00,
2013-08-31 10:33:00,66.6,33.3,29.99,SSW,204,4.0,4.0,29,0.00,,,0.00,VWS V14.01,2013-08-31 17:33:00,
2013-08-31 10:38:00,66.7,32.6,29.99,SW,230,3.6,6.3,28,0.00,,,0.00,VWS V14.01,2013-08-31 17:38:00,
2013-08-31 10:43:00,67.3,32.2,29.99,SW,234,4.0,4.0,27,0.00,,,0.00,VWS V14.01,2013-08-31 17:43:00,
2013-08-31 10:48:00,67.5,30.4,29.99,SW,228,6.3,6.3,25,0.00,,,0.00,VWS V14.01,2013-08-31 17:48:00,
2013-08-31 10:53:00,67.5,29.4,29.99,SSW,213,2.7,2.7,24,0.00,,,0.00,VWS V14.01,2013-08-31 17:53:00,
2013-08-31 10:58:00,67.8,29.7,29.99,WSW,240,3.1,3.1,24,0.00,,,0.00,VWS V14.01,2013-08-31 17:58:00,
2013-08-31 11:03:00,68.0,28.9,29.99,SSW,201,5.8,5.8,23,0.00,,,0.00,VWS V14.01,2013-08-31 18:03:00,
2013-08-31 11:08:00,68.2,29.0,29.99,SSW,206,6.3,6.7,23,0.00,,,0.00,VWS V14.01,2013-08-31 18:08:00,
2013-08-31 11:13:00,68.0,28.9,29.99,WSW,239,4.9,4.9,23,0.00,,,0.00,VWS V14.01,2013-08-31 18:13:00,
2013-08-31 11:18:00,68.0,28.9,29.99,South,183,4.0,5.4,23,0.00,,,0.00,VWS V14.01,2013-08-31 18:18:00,
2013-08-31 11:23:00,67.6,28.5,29.99,SSW,200,3.6,5.8,23,0.00,,,0.00,VWS V14.01,2013-08-31 18:23:00,
2013-08-31 11:28:00,67.6,29.6,29.99,WSW,246,4.9,4.9,24,0.00,,,0.00,VWS V14.01,2013-08-31 18:28:00,
2013-08-31 11:33:00,67.8,29.7,29.99,WSW,239,5.8,5.8,24,0.00,,,0.00,VWS V14.01,2013-08-31 18:33:00,
2013-08-31 11:38:00,68.2,29.0,29.99,SW,214,6.3,6.3,23,0.00,,,0.00,VWS V14.01,2013-08-31 18:38:00,
2013-08-31 11:43:00,68.2,29.0,29.99,SW,222,3.6,5.4,23,0.00,,,0.00,VWS V14.01,2013-08-31 18:43:00,
2013-08-31 11:48:00,68.2,29.0,29.99,SW,218,3.6,6.3,23,0.00,,,0.00,VWS V14.01,2013-08-31 18:48:00,
2013-08-31 11:53:00,68.4,29.1,29.99,SW,218,3.1,4.0,23,0.00,,,0.00,VWS V14.01,2013-08-31 18:53:00,
2013-08-31 11:58:00,68.5,29.3,29.99,SSW,207,4.0,5.4,23,0.00,,,0.00,VWS V14.01,2013-08-31 18:58:00,
2013-08-31 12:03:00,68.9,28.5,29.99,SW,231,6.3,6.3,22,0.00,,,0.00,VWS V14.01,2013-08-31 19:03:00,
2013-08-31 12:08:00,68.7,28.4,29.99,SSW,196,3.6,5.4,22,0.00,,,0.00,VWS V14.01,2013-08-31 19:08:00,
2013-08-31 12:13:00,69.1,28.7,29.99,South,174,5.8,5.8,22,0.00,,,0.00,VWS V14.01,2013-08-31 19:13:00,
2013-08-31 12:18:00,69.4,29.0,29.99,SSW,207,4.0,4.0,22,0.00,,,0.00,VWS V14.01,2013-08-31 19:18:00,
2013-08-31 12:23:00,69.4,29.0,29.99,SSW,211,5.8,5.8,22,0.00,,,0.00,VWS V14.01,2013-08-31 19:23:00,
2013-08-31 12:28:00,69.4,29.0,29.99,SSW,202,4.0,5.8,22,0.00,,,0.00,VWS V14.01,2013-08-31 19:28:00,
2013-08-31 12:33:00,69.4,29.0,29.99,WSW,256,6.3,6.3,22,0.00,,,0.00,VWS V14.01,2013-08-31 19:33:00,
2013-08-31 12:38:00,69.6,29.1,29.99,South,170,4.0,4.0,22,0.00,,,0.00,VWS V14.01,2013-08-31 19:38:00,
2013-08-31 12:43:00,69.6,29.1,29.99,SW,226,8.1,8.1,22,0.00,,,0.00,VWS V14.01,2013-08-31 19:43:00,
2013-08-31 12:48:00,69.4,29.0,29.99,SW,227,4.0,6.3,22,0.00,,,0.00,VWS V14.01,2013-08-31 19:48:00,
2013-08-31 12:53:00,69.6,29.1,29.99,South,191,5.4,6.3,22,0.00,,,0.00,VWS V14.01,2013-08-31 19:53:00,
2013-08-31 12:58:00,69.4,29.0,29.99,South,186,3.1,5.8,22,0.00,,,0.00,VWS V14.01,2013-08-31 19:58:00,
2013-08-31 13:03:00,69.6,29.1,29.99,WSW,244,4.0,4.0,22,0.00,,,0.00,VWS V14.01,2013-08-31 20:03:00,
2013-08-31 13:08:00,69.8,29.3,29.99,WSW,240,4.0,4.0,22,0.00,,,0.00,VWS V14.01,2013-08-31 20:08:00,
2013-08-31 13:13:00,70.0,29.4,29.99,WSW,250,4.5,5.4,22,0.00,,,0.00,VWS V14.01,2013-08-31 20:13:00,
2013-08-31 13:18:00,70.0,29.4,29.99,South,181,4.0,4.0,22,0.00,,,0.00,VWS V14.01,2013-08-31 20:18:00,
2013-08-31 13:23:00,70.0,29.4,29.96,SW,232,3.1,5.4,22,0.00,,,0.00,VWS V14.01,2013-08-31 20:23:00,
2013-08-31 13:28:00,69.8,25.7,29.96,SW,220,5.8,5.8,19,0.00,,,0.00,VWS V14.01,2013-08-31 20:28:00,
2013-08-31 13:33:00,69.4,29.0,29.96,SSW,213,4.0,4.0,22,0.00,,,0.00,VWS V14.01,2013-08-31 20:33:00,
2013-08-31 13:38:00,69.6,29.1,29.96,SSW,197,3.1,3.1,22,0.00,,,0.00,VWS V14.01,2013-08-31 20:38:00,
2013-08-31 13:43:00,70.0,29.4,29.96,SSW,209,4.0,4.9,22,0.00,,,0.00,VWS V14.01,2013-08-31 20:43:00,
2013-08-31 13:48:00,70.0,29.4,29.96,WSW,239,5.8,5.8,22,0.00,,,0.00,VWS V14.01,2013-08-31 20:48:00,
2013-08-31 13:53:00,70.2,26.0,29.96,South,187,4.0,4.9,19,0.00,,,0.00,VWS V14.01,2013-08-31 20:53:00,
2013-08-31 13:58:00,70.3,26.2,29.96,SSW,203,4.9,6.3,19,0.00,,,0.00,VWS V14.01,2013-08-31 20:58:00,
2013-08-31 14:03:00,70.2,26.0,29.96,SSW,198,2.7,5.4,19,0.00,,,0.00,VWS V14.01,2013-08-31 21:03:00,
2013-08-31 14:08:00,70.3,26.2,29.96,SW,230,3.6,3.6,19,0.00,,,0.00,VWS V14.01,2013-08-31 21:08:00,
2013-08-31 14:13:00,70.0,25.9,29.96,SSW,198,2.7,4.0,19,0.00,,,0.00,VWS V14.01,2013-08-31 21:13:00,
2013-08-31 14:18:00,70.3,26.2,29.96,SW,214,6.3,6.3,19,0.00,,,0.00,VWS V14.01,2013-08-31 21:18:00,
2013-08-31 14:23:00,70.7,26.5,29.96,SW,221,3.6,4.9,19,0.00,,,0.00,VWS V14.01,2013-08-31 21:23:00,
2013-08-31 14:28:00,70.9,26.6,29.96,SSW,196,7.6,7.6,19,0.00,,,0.00,VWS V14.01,2013-08-31 21:28:00,
2013-08-31 14:33:00,70.3,26.2,29.96,WSW,254,6.3,8.1,19,0.00,,,0.00,VWS V14.01,2013-08-31 21:33:00,
2013-08-31 14:38:00,70.2,26.0,29.96,SW,226,5.8,5.8,19,0.00,,,0.00,VWS V14.01,2013-08-31 21:38:00,
2013-08-31 14:43:00,70.3,26.2,29.96,South,182,6.7,6.7,19,0.00,,,0.00,VWS V14.01,2013-08-31 21:43:00,
2013-08-31 14:48:00,70.2,26.0,29.96,SSW,196,2.7,3.6,19,0.00,,,0.00,VWS V14.01,2013-08-31 21:48:00,
2013-08-31 14:53:00,70.2,26.0,29.96,SSW,210,4.0,4.0,19,0.00,,,0.00,VWS V14.01,2013-08-31 21:53:00,
2013-08-31 14:58:00,70.0,25.9,29.96,SSE,162,4.0,4.0,19,0.00,,,0.00,VWS V14.01,2013-08-31 21:58:00,
2013-08-31 15:03:00,70.2,26.0,29.96,SE,141,4.9,7.6,19,0.00,,,0.00,VWS V14.01,2013-08-31 22:03:00,
2013-08-31 15:08:00,69.6,26.8,29.96,SSW,208,4.0,7.6,20,0.00,,,0.00,VWS V14.01,2013-08-31 22:08:00,
2013-08-31 15:13:00,69.1,28.7,29.96,SSE,165,4.9,5.8,22,0.00,,,0.00,VWS V14.01,2013-08-31 22:13:00,
2013-08-31 15:18:00,68.9,28.5,29.96,South,172,5.4,5.4,22,0.00,,,0.00,VWS V14.01,2013-08-31 22:18:00,
2013-08-31 15:23:00,69.3,28.8,29.96,WSW,251,5.4,5.4,22,0.00,,,0.00,VWS V14.01,2013-08-31 22:23:00,
2013-08-31 15:28:00,69.6,29.1,29.96,SSW,193,3.1,5.8,22,0.00,,,0.00,VWS V14.01,2013-08-31 22:28:00,
2013-08-31 15:33:00,69.6,26.8,29.96,SW,216,4.0,4.0,20,0.00,,,0.00,VWS V14.01,2013-08-31 22:33:00,
2013-08-31 15:38:00,69.8,29.3,29.96,SSW,203,4.9,5.4,22,0.00,,,0.00,VWS V14.01,2013-08-31 22:38:00,
2013-08-31 15:43:00,69.8,29.3,29.96,SSW,199,3.6,4.0,22,0.00,,,0.00,VWS V14.01,2013-08-31 22:43:00,
2013-08-31 15:48:00,69.4,26.7,29.96,SE,128,4.0,5.8,20,0.00,,,0.00,VWS V14.01,2013-08-31 22:48:00,
2013-08-31 15:53:00,69.4,26.7,29.93,South,188,4.9,4.9,20,0.00,,,0.00,VWS V14.01,2013-08-31 22:53:00,
2013-08-31 15:58:00,69.8,29.3,29.93,SW,221,5.8,5.8,22,0.00,,,0.00,VWS V14.01,2013-08-31 22:58:00,
2013-08-31 16:03:00,69.8,29.3,29.93,WSW,252,4.9,5.8,22,0.00,,,0.00,VWS V14.01,2013-08-31 23:03:00,
2013-08-31 16:08:00,69.6,26.8,29.93,South,173,4.5,5.4,20,0.00,,,0.00,VWS V14.01,2013-08-31 23:08:00,
2013-08-31 16:13:00,69.6,29.1,29.93,SW,227,2.7,4.0,22,0.00,,,0.00,VWS V14.01,2013-08-31 23:13:00,
2013-08-31 16:18:00,69.8,29.3,29.93,SSW,206,4.0,4.0,22,0.00,,,0.00,VWS V14.01,2013-08-31 23:18:00,
2013-08-31 16:23:00,69.6,29.1,29.93,WSW,245,6.3,6.3,22,0.00,,,0.00,VWS V14.01,2013-08-31 23:23:00,
2013-08-31 16:28:00,69.4,29.0,29.93,SW,225,4.0,4.0,22,0.00,,,0.00,VWS V14.01,2013-08-31 23:28:00,
2013-08-31 16:33:00,69.6,29.1,29.93,SSW,195,4.0,4.9,22,0.00,,,0.00,VWS V14.01,2013-08-31 23:33:00,
2013-08-31 16:38:00,69.4,29.0,29.93,SE,143,3.6,5.8,22,0.00,,,0.00,VWS V14.01,2013-08-31 23:38:00,
2013-08-31 16:43:00,69.3,29.9,29.93,SSW,212,4.9,4.9,23,0.00,,,0.00,VWS V14.01,2013-08-31 23:43:00,
2013-08-31 16:48:00,69.1,29.8,29.93,SE,140,4.0,4.0,23,0.00,,,0.00,VWS V14.01,2013-08-31 23:48:00,
2013-08-31 16:53:00,68.7,29.5,29.93,SW,228,2.7,4.0,23,0.00,,,0.00,VWS V14.01,2013-08-31 23:53:00,
2013-08-31 16:58:00,69.1,29.8,29.93,East,97,3.1,4.0,23,0.00,,,0.00,VWS V14.01,2013-08-31 23:58:00,
2013-08-31 17:03:00,69.1,29.8,29.93,South,180,4.0,4.0,23,0.00,,,0.00,VWS V14.01,2013-09-01 00:03:00,
2013-08-31 17:08:00,69.3,29.9,29.93,SSW,203,3.1,3.1,23,0.00,,,0.00,VWS V14.01,2013-09-01 00:08:00,
2013-08-31 17:13:00,69.3,29.9,29.93,SSE,159,4.9,4.9,23,0.00,,,0.00,VWS V14.01,2013-09-01 00:13:00,
2013-08-31 17:18:00,69.4,30.1,29.93,SSE,152,6.3,6.3,23,0.00,,,0.00,VWS V14.01,2013-09-01 00:18:00,
2013-08-31 17:23:00,69.4,30.1,29.93,South,190,3.6,6.3,23,0.00,,,0.00,VWS V14.01,2013-09-01 00:23:00,
2013-08-31 17:28:00,69.3,29.9,29.93,SSE,151,3.6,3.6,23,0.00,,,0.00,VWS V14.01,2013-09-01 00:28:00,
2013-08-31 17:33:00,69.1,29.8,29.93,South,188,3.1,3.6,23,0.00,,,0.00,VWS V14.01,2013-09-01 00:33:00,
2013-08-31 17:38:00,68.9,29.6,29.90,South,182,3.6,4.9,23,0.00,,,0.00,VWS V14.01,2013-09-01 00:38:00,
2013-08-31 17:43:00,68.9,29.6,29.90,West,262,3.1,4.0,23,0.00,,,0.00,VWS V14.01,2013-09-01 00:43:00,
2013-08-31 17:48:00,68.5,29.3,29.90,SSW,210,4.9,4.9,23,0.00,,,0.00,VWS V14.01,2013-09-01 00:48:00,
2013-08-31 17:53:00,67.8,29.7,29.93,South,190,4.0,5.4,24,0.00,,,0.00,VWS V14.01,2013-09-01 00:53:00,
2013-08-31 17:58:00,67.6,29.6,29.93,SE,142,3.1,5.4,24,0.00,,,0.00,VWS V14.01,2013-09-01 00:58:00,
2013-08-31 18:03:00,67.6,30.6,29.93,SSW,209,3.1,4.0,25,0.00,,,0.00,VWS V14.01,2013-09-01 01:03:00,
2013-08-31 18:08:00,67.6,30.6,29.93,SSW,202,3.1,3.1,25,0.00,,,0.00,VWS V14.01,2013-09-01 01:08:00,
2013-08-31 18:13:00,67.5,30.4,29.93,SSW,201,4.0,4.0,25,0.00,,,0.00,VWS V14.01,2013-09-01 01:13:00,
2013-08-31 18:18:00,67.5,30.4,29.93,SSW,210,2.7,3.1,25,0.00,,,0.00,VWS V14.01,2013-09-01 01:18:00,
2013-08-31 18:23:00,67.3,30.3,29.93,SSW,210,4.0,4.0,25,0.00,,,0.00,VWS V14.01,2013-09-01 01:23:00,
2013-08-31 18:28:00,66.9,31.0,29.93,South,185,2.2,4.0,26,0.00,,,0.00,VWS V14.01,2013-09-01 01:28:00,
2013-08-31 18:33:00,66.7,31.7,29.93,SSW,200,3.6,3.6,27,0.00,,,0.00,VWS V14.01,2013-09-01 01:33:00,
2013-08-31 18:38:00,66.7,31.7,29.93,SE,140,3.6,3.6,27,0.00,,,0.00,VWS V14.01,2013-09-01 01:38:00,
2013-08-31 18:43:00,66.9,31.9,29.93,WSW,238,5.4,5.8,27,0.00,,,0.00,VWS V14.01,2013-09-01 01:43:00,
2013-08-31 18:48:00,66.4,31.4,29.93,South,187,4.0,4.0,27,0.00,,,0.00,VWS V14.01,2013-09-01 01:48:00,
2013-08-31 18:53:00,65.8,31.9,29.93,ESE,110,4.9,5.4,28,0.00,,,0.00,VWS V14.01,2013-09-01 01:53:00,
2013-08-31 18:58:00,65.5,33.3,29.93,SSW,212,2.7,4.0,30,0.00,,,0.00,VWS V14.01,2013-09-01 01:58:00,
2013-08-31 19:03:00,65.3,33.1,29.93,SW,236,3.6,3.6,30,0.00,,,0.00,VWS V14.01,2013-09-01 02:03:00,
2013-08-31 19:08:00,65.1,33.8,29.93,SW,214,4.0,4.0,31,0.00,,,0.00,VWS V14.01,2013-09-01 02:08:00,
2013-08-31 19:13:00,64.8,34.2,29.93,SSE,168,3.6,4.0,32,0.00,,,0.00,VWS V14.01,2013-09-01 02:13:00,
2013-08-31 19:18:00,64.4,34.7,29.93,SSW,204,3.1,4.9,33,0.00,,,0.00,VWS V14.01,2013-09-01 02:18:00,
2013-08-31 19:23:00,63.9,35.0,29.93,South,187,2.7,4.0,34,0.00,,,0.00,VWS V14.01,2013-09-01 02:23:00,
2013-08-31 19:28:00,63.0,34.2,29.93,SSW,211,5.8,5.8,34,0.00,,,0.00,VWS V14.01,2013-09-01 02:28:00,
2013-08-31 19:33:00,62.4,35.1,29.93,SSW,195,3.1,3.1,36,0.00,,,0.00,VWS V14.01,2013-09-01 02:33:00,
2013-08-31 19:38:00,61.9,35.3,29.93,SSW,195,3.1,3.1,37,0.00,,,0.00,VWS V14.01,2013-09-01 02:38:00,
2013-08-31 19:43:00,61.7,35.2,29.93,South,176,3.6,3.6,37,0.00,,,0.00,VWS V14.01,2013-09-01 02:43:00,
2013-08-31 19:48:00,61.3,35.5,29.93,SSW,197,0.0,0.0,38,0.00,,,0.00,VWS V14.01,2013-09-01 02:48:00,
2013-08-31 19:53:00,61.2,36.0,29.93,South,173,0.0,0.0,39,0.00,,,0.00,VWS V14.01,2013-09-01 02:53:00,
2013-08-31 19:58:00,61.2,36.7,29.93,SW,232,0.0,0.0,40,0.00,,,0.00,VWS V14.01,2013-09-01 02:58:00,
2013-08-31 20:03:00,61.2,36.7,29.93,SSW,197,0.0,2.7,40,0.00,,,0.00,VWS V14.01,2013-09-01 03:03:00,
2013-08-31 20:08:00,61.2,37.3,29.93,SSW,211,2.2,2.7,41,0.00,,,0.00,VWS V14.01,2013-09-01 03:08:00,
2013-08-31 20:13:00,61.2,37.9,29.93,SW,217,3.1,3.1,42,0.00,,,0.00,VWS V14.01,2013-09-01 03:13:00,
2013-08-31 20:18:00,61.2,37.9,29.93,SW,226,3.1,4.0,42,0.00,,,0.00,VWS V14.01,2013-09-01 03:18:00,
2013-08-31 20:23:00,61.2,38.5,29.93,SSW,203,2.7,2.7,43,0.00,,,0.00,VWS V14.01,2013-09-01 03:23:00,
2013-08-31 20:28:00,61.2,39.1,29.93,WSW,243,2.7,3.6,44,0.00,,,0.00,VWS V14.01,2013-09-01 03:28:00,
2013-08-31 20:33:00,61.2,39.1,29.93,SW,228,2.7,2.7,44,0.00,,,0.00,VWS V14.01,2013-09-01 03:33:00,
2013-08-31 20:38:00,61.2,39.7,29.93,SW,229,3.6,3.6,45,0.00,,,0.00,VWS V14.01,2013-09-01 03:38:00,
2013-08-31 20:43:00,61.0,39.5,29.93,SW,220,0.0,0.0,45,0.00,,,0.00,VWS V14.01,2013-09-01 03:43:00,
2013-08-31 20:48:00,61.0,39.5,29.93,SW,216,3.1,3.1,45,0.00,,,0.00,VWS V14.01,2013-09-01 03:48:00,
2013-08-31 20:53:00,61.0,40.1,29.93,WSW,240,2.7,4.0,46,0.00,,,0.00,VWS V14.01,2013-09-01 03:53:00,
2013-08-31 20:58:00,60.8,39.9,29.93,SSW,209,0.0,2.7,46,0.00,,,0.00,VWS V14.01,2013-09-01 03:58:00,
2013-08-31 21:01:00,60.8,39.9,29.93,SW,217,2.7,4.0,46,0.00,,,0.00,VWS V14.01,2013-09-01 04:01:00,
2013-08-31 21:02:00,60.8,39.9,29.93,SSW,200,2.7,3.1,46,0.00,,,0.00,VWS V14.01,2013-09-01 04:02:00,
2013-08-31 21:07:00,60.8,40.5,29.93,SW,219,0.0,0.0,47,0.00,,,0.00,VWS V14.01,2013-09-01 04:07:00,
2013-08-31 21:12:00,60.8,40.5,29.93,SW,225,2.7,2.7,47,0.00,,,0.00,VWS V14.01,2013-09-01 04:12:00,
2013-08-31 21:17:00,60.8,41.0,29.93,SSW,209,0.0,0.0,48,0.00,,,0.00,VWS V14.01,2013-09-01 04:17:00,
2013-08-31 21:22:00,60.8,41.0,29.93,SW,216,0.0,2.7,48,0.00,,,0.00,VWS V14.01,2013-09-01 04:22:00,
2013-08-31 21:27:00,60.8,41.0,29.93,SW,214,0.0,0.0,48,0.00,,,0.00,VWS V14.01,2013-09-01 04:27:00,
2013-08-31 21:32:00,60.6,40.8,29.93,SW,230,3.1,3.1,48,0.00,,,0.00,VWS V14.01,2013-09-01 04:32:00,
2013-08-31 21:37:00,60.6,41.4,29.93,SSW,206,0.0,3.1,49,0.00,,,0.00,VWS V14.01,2013-09-01 04:37:00,
2013-08-31 21:42:00,60.6,41.4,29.93,South,191,0.0,2.2,49,0.00,,,0.00,VWS V14.01,2013-09-01 04:42:00,
2013-08-31 21:47:00,60.6,41.4,29.93,SW,223,2.7,3.1,49,0.00,,,0.00,VWS V14.01,2013-09-01 04:47:00,
2013-08-31 21:52:00,60.6,41.9,29.93,SW,215,3.1,3.1,50,0.00,,,0.00,VWS V14.01,2013-09-01 04:52:00,
2013-08-31 21:57:00,60.6,41.9,29.93,SSW,209,4.0,4.0,50,0.00,,,0.00,VWS V14.01,2013-09-01 04:57:00,
2013-08-31 22:02:00,60.4,41.7,29.93,SW,220,4.0,4.0,50,0.00,,,0.00,VWS V14.01,2013-09-01 05:02:00,
2013-08-31 22:07:00,60.4,41.7,29.93,SSE,151,0.0,0.0,50,0.00,,,0.00,VWS V14.01,2013-09-01 05:07:00,
2013-08-31 22:12:00,60.6,42.4,29.93,SSW,205,0.0,4.0,51,0.00,,,0.00,VWS V14.01,2013-09-01 05:12:00,
2013-08-31 22:17:00,60.6,42.4,29.93,SSE,167,3.6,3.6,51,0.00,,,0.00,VWS V14.01,2013-09-01 05:17:00,
2013-08-31 22:22:00,60.4,42.2,29.93,SSW,200,2.7,3.6,51,0.00,,,0.00,VWS V14.01,2013-09-01 05:22:00,
2013-08-31 22:27:00,60.3,42.1,29.93,SW,214,3.1,5.4,51,0.00,,,0.00,VWS V14.01,2013-09-01 05:27:00,
2013-08-31 22:32:00,60.1,41.9,29.93,SW,224,3.6,4.0,51,0.00,,,0.00,VWS V14.01,2013-09-01 05:32:00,
2013-08-31 22:37:00,59.9,41.8,29.93,WSW,256,4.0,4.0,51,0.00,,,0.00,VWS V14.01,2013-09-01 05:37:00,
2013-08-31 22:42:00,59.7,42.1,29.93,South,178,3.6,3.6,52,0.00,,,0.00,VWS V14.01,2013-09-01 05:42:00,
2013-08-31 22:47:00,59.7,42.1,29.93,WSW,248,3.1,3.6,52,0.00,,,0.00,VWS V14.01,2013-09-01 05:47:00,
2013-08-31 22:52:00,59.7,42.1,29.96,SSW,213,7.2,7.2,52,0.00,,,0.00,VWS V14.01,2013-09-01 05:52:00,
2013-08-31 22:57:00,59.5,42.4,29.96,SW,219,3.1,3.1,53,0.00,,,0.00,VWS V14.01,2013-09-01 05:57:00,
2013-08-31 23:02:00,59.4,42.2,29.96,SSW,202,0.0,4.0,53,0.00,,,0.00,VWS V14.01,2013-09-01 06:02:00,
2013-08-31 23:07:00,59.4,42.2,29.96,SSW,209,2.7,2.7,53,0.00,,,0.00,VWS V14.01,2013-09-01 06:07:00,
2013-08-31 23:12:00,59.2,42.6,29.96,SSW,210,3.6,3.6,54,0.00,,,0.00,VWS V14.01,2013-09-01 06:12:00,
2013-08-31 23:17:00,59.2,42.6,29.96,South,191,3.1,3.1,54,0.00,,,0.00,VWS V14.01,2013-09-01 06:17:00,
2013-08-31 23:22:00,59.2,42.6,29.93,SSW,206,0.0,0.0,54,0.00,,,0.00,VWS V14.01,2013-09-01 06:22:00,
2013-08-31 23:27:00,59.2,43.0,29.93,South,175,4.0,4.0,55,0.00,,,0.00,VWS V14.01,2013-09-01 06:27:00,
2013-08-31 23:32:00,59.2,43.0,29.93,SSW,201,4.0,4.0,55,0.00,,,0.00,VWS V14.01,2013-09-01 06:32:00,
2013-08-31 23:37:00,59.2,43.0,29.93,South,189,0.0,3.1,55,0.00,,,0.00,VWS V14.01,2013-09-01 06:37:00,
2013-08-31 23:42:00,59.2,43.0,29.93,SE,132,3.1,3.1,55,0.00,,,0.00,VWS V14.01,2013-09-01 06:42:00,
2013-08-31 23:47:00,59.2,43.0,29.93,SSW,206,5.4,5.4,55,0.00,,,0.00,VWS V14.01,2013-09-01 06:47:00,
2013-08-31 23:52:00,59.2,43.0,29.93,SSE,151,3.1,3.1,55,0.00,,,0.00,VWS V14.01,2013-09-01 06:52:00,
2013-08-31 23:57:00,59.4,43.7,29.93,SW,232,2.2,5.4,56,0.00,,,0.00,VWS V14.01,2013-09-01 06:57:00,